N7CW Weather Reports


time (UTC)temp
F
wind
direction
speed
knots
gust
knots
rain 1hr
in
rain 24hr
in
rain mn
in
humidity
%
barometer
mb
20260507090703 48 146 0.0 0.0 0.00 0.00 0.00 51 1020.4
20260507090200 48 112 0.0 0.0 0.00 0.00 0.00 52 1020.4
20260507085657 49 110 0.0 0.0 0.00 0.00 0.00 50 1020.4
20260507085154 50 137 0.0 0.0 0.00 0.00 0.00 48 1020.5
20260507084651 51 145 0.0 0.9 0.00 0.00 0.00 47 1020.4
20260507084148 52 131 0.0 0.0 0.00 0.00 0.00 46 1020.3
20260507083644 53 131 0.0 0.0 0.00 0.00 0.00 45 1020.6
20260507083142 53 126 0.0 0.0 0.00 0.00 0.00 44 1020.4
20260507082637 53 131 0.0 0.0 0.00 0.00 0.00 45 1020.4
20260507082134 53 148 1.7 1.7 0.00 0.00 0.00 45 1020.1
20260507081631 53 119 0.0 0.0 0.00 0.00 0.00 44 1020.4
20260507081127 53 124 0.0 0.9 0.00 0.00 0.00 44 1020.5
20260507080623 53 240 3.5 3.5 0.00 0.00 0.00 43 1020.1
20260507080120 54 209 2.6 3.5 0.00 0.00 0.00 44 1020.1
20260507075620 53 286 4.3 6.1 0.00 0.00 0.00 44 1020.1
20260507075116 52 248 3.5 3.5 0.00 0.00 0.00 44 1020.1
20260507074614 52 229 1.7 2.6 0.00 0.00 0.00 45 1020.3
20260507074112 53 223 2.6 2.6 0.00 0.00 0.00 44 1020.1
20260507073608 53 182 0.9 0.9 0.00 0.00 0.00 44 1020.3
20260507073104 53 141 0.0 0.0 0.00 0.00 0.00 45 1020.5
20260507072601 53 155 0.0 0.0 0.00 0.00 0.00 44 1020.5
20260507072059 53 140 0.0 0.0 0.00 0.00 0.00 44 1020.3
20260507071556 53 146 0.0 0.9 0.00 0.00 0.00 44 1020.4
20260507071052 54 210 3.5 3.5 0.00 0.00 0.00 44 1020.3
20260507070549 55 239 1.7 1.7 0.00 0.00 0.00 42 1020.3
20260507070047 55 139 0.0 0.0 0.00 0.00 0.00 42 1020.5
20260507065543 55 202 1.7 2.6 0.00 0.00 0.00 42 1020.3
20260507065040 55 268 3.5 3.5 0.00 0.00 0.00 41 1020.4
20260507064538 54 260 3.5 5.2 0.00 0.00 0.00 42 1020.5
20260507064036 54 217 1.7 2.6 0.00 0.00 0.00 43 1020.4
20260507063533 55 303 2.6 3.5 0.00 0.00 0.00 41 1020.4
20260507063031 55 152 0.9 0.9 0.00 0.00 0.00 42 1020.3
20260507062527 54 198 1.7 2.6 0.00 0.00 0.00 42 1020.0
20260507062025 55 206 3.5 5.2 0.00 0.00 0.00 42 1020.0
20260507061522 55 147 1.7 1.7 0.00 0.00 0.00 42 1020.3
20260507061020 55 155 2.6 2.6 0.00 0.00 0.00 42 1020.1
20260507060518 55 199 1.7 2.6 0.00 0.00 0.00 42 1020.0
20260507060014 55 196 1.7 2.6 0.00 0.00 0.00 41 1020.0
20260507055514 55 196 2.6 2.6 0.00 0.00 0.00 41 1020.0
20260507055011 55 195 1.7 1.7 0.00 0.00 0.00 41 1019.9
20260507054507 56 234 3.5 3.5 0.00 0.00 0.00 41 1019.9
20260507054004 56 205 3.5 5.2 0.00 0.00 0.00 41 1020.0
20260507053502 56 220 3.5 3.5 0.00 0.00 0.00 41 1020.0
20260507053000 55 230 2.6 2.6 0.00 0.00 0.00 41 1019.8
20260507052458 56 224 3.5 5.2 0.00 0.00 0.00 41 1019.9
20260507051954 55 193 3.5 5.2 0.00 0.00 0.00 41 1019.8
20260507051452 55 197 3.5 5.2 0.00 0.00 0.00 41 1019.8
20260507050948 55 183 2.6 2.6 0.00 0.00 0.00 41 1019.8
20260507050445 56 197 2.6 2.6 0.00 0.00 0.00 41 1019.8
20260507045942 56 217 2.6 3.5 0.00 0.00 0.00 41 1019.8
20260507045438 56 156 3.5 5.2 0.00 0.00 0.00 40 1019.4
20260507044936 56 246 4.3 6.1 0.00 0.00 0.00 40 1019.7
20260507044432 56 229 6.1 7.8 0.00 0.00 0.00 40 1019.8
20260507043928 56 221 5.2 6.1 0.00 0.00 0.00 40 1019.4
20260507043425 56 227 3.5 3.5 0.00 0.00 0.00 40 1019.7
20260507042921 56 241 5.2 7.0 0.00 0.00 0.00 40 1019.5
20260507042418 56 205 3.5 5.2 0.00 0.00 0.00 40 1019.5
20260507041914 56 235 5.2 6.1 0.00 0.00 0.00 40 1019.5
20260507041411 57 243 5.2 7.0 0.00 0.00 0.00 39 1019.5
20260507040908 57 247 3.5 3.5 0.00 0.00 0.00 39 1019.5
20260507040404 57 232 5.2 6.1 0.00 0.00 0.00 39 1019.3
20260507035900 57 245 5.2 6.1 0.00 0.00 0.00 39 1019.4
20260507035356 57 226 6.1 7.0 0.00 0.00 0.00 39 1019.1
20260507034853 57 222 7.0 7.8 0.00 0.00 0.00 39 1019.3
20260507034350 57 236 3.5 3.5 0.00 0.00 0.00 39 1019.2
20260507033848 57 224 5.2 7.0 0.00 0.00 0.00 39 1019.0
20260507033346 57 241 5.2 6.1 0.00 0.00 0.00 39 1018.8
20260507032843 57 281 3.5 3.5 0.00 0.00 0.00 39 1019.1
20260507032339 58 204 3.5 3.5 0.00 0.00 0.00 38 1019.2
20260507031835 58 237 6.1 7.0 0.00 0.00 0.00 38 1018.8
20260507031332 58 238 5.2 7.8 0.00 0.00 0.00 38 1018.7
20260507030829 58 191 2.6 3.5 0.00 0.00 0.00 38 1019.0
20260507030327 58 174 3.5 3.5 0.00 0.00 0.00 38 1018.5
20260507025823 59 166 3.5 3.5 0.00 0.00 0.00 37 1018.7
20260507025321 59 200 2.6 2.6 0.00 0.00 0.00 37 1018.4
20260507024818 59 186 3.5 3.5 0.00 0.00 0.00 37 1018.4
20260507024315 60 158 0.9 0.9 0.00 0.00 0.00 36 1018.0
20260507023811 60 215 3.5 3.5 0.00 0.00 0.00 36 1018.2
20260507023307 60 244 7.8 11.3 0.00 0.00 0.00 36 1017.9
20260507022805 60 192 3.5 3.5 0.00 0.00 0.00 36 1018.0
20260507022301 60 254 4.3 5.2 0.00 0.00 0.00 35 1017.9
20260507021757 61 254 5.2 7.0 0.00 0.00 0.00 35 1017.8
20260507021253 61 247 3.5 5.2 0.00 0.00 0.00 35 1017.8
20260507020752 62 260 4.3 6.1 0.00 0.00 0.00 35 1017.7
20260507020248 62 270 3.5 5.2 0.00 0.00 0.00 34 1017.7
20260507015745 62 248 5.2 6.1 0.00 0.00 0.00 34 1017.7
20260507015243 63 271 5.2 6.1 0.00 0.00 0.00 33 1017.7
20260507014739 63 278 5.2 7.8 0.00 0.00 0.00 33 1017.5
20260507014236 64 259 3.5 3.5 0.00 0.00 0.00 33 1017.4
20260507013732 64 231 7.8 8.7 0.00 0.00 0.00 33 1017.2
20260507013230 64 266 5.2 7.8 0.00 0.00 0.00 32 1017.7
20260507012727 65 250 7.0 8.7 0.00 0.00 0.00 32 1017.2
20260507012222 65 338 6.1 7.0 0.00 0.00 0.00 31 1017.3
20260507011720 66 291 8.7 9.6 0.00 0.00 0.00 31 1017.4
20260507011217 66 329 3.5 5.2 0.00 0.00 0.00 30 1017.3
20260507010716 66 280 6.1 7.8 0.00 0.00 0.00 30 1017.3
20260507010212 67 303 5.2 7.0 0.00 0.00 0.00 30 1017.1
20260507005710 67 314 7.8 9.6 0.00 0.00 0.00 30 1017.4
20260507005206 68 296 7.8 11.3 0.00 0.00 0.00 30 1017.5
20260507004703 68 253 4.3 8.7 0.00 0.00 0.00 29 1017.3
20260507004201 68 98 0.0 0.0 0.00 0.00 0.00 29 1017.3
20260507003657 69 307 5.2 6.1 0.00 0.00 0.00 27 1017.3
20260507003157 68 263 2.6 2.6 0.00 0.00 0.00 27 1017.1
20260507002653 69 234 3.5 5.2 0.00 0.00 0.00 27 1016.8
20260507002149 68 236 10.4 12.2 0.00 0.00 0.00 30 1017.0
20260507001646 68 258 3.5 3.5 0.00 0.00 0.00 29 1017.1
20260507001144 69 14 2.6 2.6 0.00 0.00 0.00 28 1017.1
20260507000640 69 112 0.0 0.9 0.00 0.00 0.00 27 1017.1
20260507000135 68 85 0.9 1.7 0.00 0.00 0.00 27 1017.1
20260506235633 68 242 4.3 5.2 0.00 0.00 0.00 27 1016.8
20260506235128 70 280 5.2 6.1 0.00 0.00 0.00 26 1017.0
20260506234626 70 23 5.2 7.0 0.00 0.00 0.00 28 1017.0
20260506234123 68 323 3.5 5.2 0.00 0.00 0.00 28 1017.1
20260506233620 68 235 7.0 7.8 0.00 0.00 0.00 28 1017.2
20260506233117 70 229 2.6 3.5 0.00 0.00 0.00 27 1016.8
20260506232612 67 197 3.5 5.2 0.00 0.00 0.00 29 1017.0
20260506232108 69 226 3.5 5.2 0.00 0.00 0.00 29 1017.0
20260506231605 70 118 0.0 0.9 0.00 0.00 0.00 27 1016.8
20260506231104 71 147 1.7 1.7 0.00 0.00 0.00 26 1017.1
20260506230600 69 252 3.5 3.5 0.00 0.00 0.00 27 1017.0
20260506230057 70 240 4.3 7.8 0.00 0.00 0.00 27 1016.8
20260506225554 69 251 3.5 5.2 0.00 0.00 0.00 27 1016.8
20260506225050 67 125 0.9 1.7 0.00 0.00 0.00 28 1017.1
20260506224547 66 112 1.7 1.7 0.00 0.00 0.00 28 1017.0
20260506224044 66 94 0.0 0.9 0.00 0.00 0.00 28 1017.1
20260506223540 67 340 1.7 2.6 0.00 0.00 0.00 28 1017.2
20260506223036 67 28 1.7 1.7 0.00 0.00 0.00 28 1017.2
20260506222533 68 307 4.3 5.2 0.00 0.00 0.00 27 1017.1
20260506222029 68 333 5.2 6.1 0.00 0.00 0.00 28 1017.3
20260506221527 67 55 3.5 5.2 0.00 0.00 0.00 28 1017.2
20260506221025 66 40 7.0 7.8 0.00 0.00 0.00 28 1017.3
20260506220521 65 36 1.7 1.7 0.00 0.00 0.00 29 1017.2
20260506220016 65 101 1.7 2.6 0.00 0.00 0.00 30 1017.4
20260506215513 68 4 6.1 8.7 0.00 0.00 0.00 28 1017.3
20260506215009 68 98 0.9 1.7 0.00 0.00 0.00 27 1017.5
20260506214506 66 135 1.7 1.7 0.00 0.00 0.00 27 1017.8
20260506214003 66 99 0.9 1.7 0.00 0.00 0.00 27 1017.8
20260506213502 66 94 0.0 0.9 0.00 0.00 0.00 28 1017.5
20260506212958 66 45 4.3 6.1 0.00 0.00 0.00 28 1017.7
20260506212454 68 84 1.7 1.7 0.00 0.00 0.00 27 1017.7
20260506211949 69 152 0.0 0.9 0.00 0.00 0.00 26 1017.7
20260506211445 66 184 3.5 3.5 0.00 0.00 0.00 28 1017.8
20260506210943 65 145 0.9 0.9 0.00 0.00 0.00 29 1018.1
20260506210439 66 98 0.9 1.7 0.00 0.00 0.00 28 1018.0
20260506205937 67 329 1.7 2.6 0.00 0.00 0.00 28 1018.2
20260506205433 68 41 6.1 7.8 0.00 0.00 0.00 27 1018.1
20260506204928 68 47 2.6 2.6 0.00 0.00 0.00 27 1018.0
20260506204427 65 88 0.9 0.9 0.00 0.00 0.00 28 1018.1
20260506203924 65 69 6.1 7.0 0.00 0.00 0.00 29 1018.4
20260506203420 66 120 0.9 0.9 0.00 0.00 0.00 28 1018.2
20260506202918 65 120 0.0 0.9 0.00 0.00 0.00 29 1018.4
20260506202414 65 68 4.3 5.2 0.00 0.00 0.00 29 1018.1
20260506201911 64 58 1.7 1.7 0.00 0.00 0.00 29 1018.4
20260506201409 65 33 6.1 7.0 0.00 0.00 0.00 29 1018.4
20260506200905 66 354 5.2 6.1 0.00 0.00 0.00 29 1018.2
20260506200401 65 195 1.7 2.6 0.00 0.00 0.00 29 1018.1
20260506195857 65 34 3.5 3.5 0.00 0.00 0.00 29 1018.2
20260506195355 64 18 1.7 3.5 0.00 0.00 0.00 29 1018.6
20260506194851 64 16 3.5 5.2 0.00 0.00 0.00 30 1018.5
20260506194348 63 322 5.2 6.1 0.00 0.00 0.00 31 1018.5
20260506193846 64 336 6.1 7.0 0.00 0.00 0.00 30 1018.5
20260506193342 64 34 6.1 7.8 0.00 0.00 0.00 29 1018.6
20260506192839 64 46 6.1 8.7 0.00 0.00 0.00 30 1018.6
20260506192335 63 51 0.9 1.7 0.00 0.00 0.00 30 1018.5
20260506191833 63 50 2.6 3.5 0.00 0.00 0.00 30 1018.6
20260506191329 62 62 1.7 1.7 0.00 0.00 0.00 31 1018.5
20260506190826 62 219 3.5 6.1 0.00 0.00 0.00 31 1018.6
20260506190322 63 16 3.5 6.1 0.00 0.00 0.00 30 1018.6
20260506185819 62 60 3.5 7.0 0.00 0.00 0.00 30 1018.4
20260506185316 62 58 3.5 5.2 0.00 0.00 0.00 30 1018.5
20260506184813 63 39 5.2 8.7 0.00 0.00 0.00 30 1018.2
20260506184310 62 67 3.5 3.5 0.00 0.00 0.00 30 1018.5
20260506183808 61 326 5.2 6.1 0.00 0.00 0.00 30 1018.7
20260506183303 61 15 4.3 7.0 0.00 0.00 0.00 30 1018.6
20260506182800 61 118 0.0 0.9 0.00 0.00 0.00 31 1018.6
20260506182257 61 48 3.5 5.2 0.00 0.00 0.00 30 1018.7
20260506181755 63 52 3.5 3.5 0.00 0.00 0.00 30 1018.5
20260506181253 62 140 1.7 1.7 0.00 0.00 0.00 30 1018.6
20260506180749 61 107 0.0 0.9 0.00 0.00 0.00 32 1018.6
20260506180245 60 53 3.5 5.2 0.00 0.00 0.00 33 1018.8
20260506175741 60 52 5.2 7.8 0.00 0.00 0.00 33 1018.7
20260506175239 62 82 1.7 2.6 0.00 0.00 0.00 32 1018.7
20260506174737 62 95 0.9 1.7 0.00 0.00 0.00 32 1018.6
20260506174233 62 95 4.3 5.2 0.00 0.00 0.00 31 1018.5
20260506173731 61 110 0.9 1.7 0.00 0.00 0.00 33 1018.6
20260506173227 60 258 4.3 6.1 0.00 0.00 0.00 33 1018.6
20260506172724 61 51 0.9 1.7 0.00 0.00 0.00 34 1018.5
20260506172221 59 118 1.7 2.6 0.00 0.00 0.00 33 1018.6
20260506171718 58 113 4.3 6.1 0.00 0.00 0.00 35 1018.5
20260506171216 58 97 1.7 2.6 0.00 0.00 0.00 36 1018.5
20260506170713 60 66 1.7 1.7 0.00 0.00 0.00 35 1018.4
20260506170210 59 294 1.7 3.5 0.00 0.00 0.00 35 1018.5
20260506165708 58 169 2.6 2.6 0.00 0.00 0.00 36 1018.4
20260506165204 58 242 3.5 5.2 0.00 0.00 0.00 36 1018.2
20260506164702 58 125 0.9 0.9 0.00 0.00 0.00 35 1018.2
20260506164159 56 211 1.7 2.6 0.00 0.00 0.00 36 1018.2
20260506163655 57 51 1.7 2.6 0.00 0.00 0.00 36 1018.4
20260506163150 56 118 1.7 1.7 0.00 0.00 0.00 37 1018.5
20260506162647 56 356 2.6 2.6 0.00 0.00 0.00 38 1018.5
20260506162144 57 353 3.5 3.5 0.00 0.00 0.00 36 1018.1
20260506161641 57 274 2.6 2.6 0.00 0.00 0.00 36 1018.2
20260506161138 56 222 2.6 2.6 0.00 0.00 0.00 37 1018.0
20260506160636 55 1 2.6 2.6 0.00 0.00 0.00 38 1018.1
20260506160132 55 171 3.5 5.2 0.00 0.00 0.00 36 1018.2
20260506155631 55 233 1.7 1.7 0.00 0.00 0.00 37 1018.1
20260506155128 55 157 1.7 2.6 0.00 0.00 0.00 38 1018.0
20260506153230 54 170 2.6 3.5 0.00 0.00 0.00 38 1018.1
20260506152727 54 149 0.9 0.9 0.00 0.00 0.00 39 1017.9
20260506152224 55 170 1.7 1.7 0.00 0.00 0.00 38 1018.0
20260506151724 53 100 0.9 1.7 0.00 0.00 0.00 37 1018.0
20260506151219 53 98 0.9 1.7 0.00 0.00 0.00 40 1017.9
20260506150716 53 293 3.5 5.2 0.00 0.00 0.00 42 1017.8
20260506150213 53 201 3.5 3.5 0.00 0.00 0.00 41 1017.9
20260506145710 53 345 1.7 2.6 0.00 0.00 0.00 41 1017.9
20260506145207 53 193 1.7 2.6 0.00 0.00 0.00 41 1017.9
20260506144704 52 304 1.7 1.7 0.00 0.00 0.00 41 1017.7
20260506144201 52 325 1.7 2.6 0.00 0.00 0.00 40 1017.7
20260506143659 52 16 1.7 2.6 0.00 0.00 0.00 41 1017.7
20260506143156 51 172 0.9 0.9 0.00 0.00 0.00 41 1017.5
20260506142655 52 16 3.5 5.2 0.00 0.00 0.00 41 1017.5
20260506142152 51 93 0.0 0.0 0.00 0.00 0.00 46 1017.7
20260506141649 52 107 0.0 0.0 0.00 0.00 0.00 44 1017.5
20260506141147 51 131 0.0 0.0 0.00 0.00 0.00 49 1017.5
20260506140645 49 131 0.9 0.9 0.00 0.00 0.00 49 1017.7
20260506140142 49 118 0.0 0.9 0.00 0.00 0.00 51 1017.7
20260506135639 49 126 0.9 0.9 0.00 0.00 0.00 51 1017.5
20260506135135 48 102 0.9 1.7 0.00 0.00 0.00 51 1017.7
20260506134632 48 100 0.9 0.9 0.00 0.00 0.00 53 1017.4
20260506134127 47 98 0.9 0.9 0.00 0.00 0.00 54 1017.4
20260506133625 48 106 0.0 0.0 0.00 0.00 0.00 54 1017.2
20260506133122 46 119 0.0 0.0 0.00 0.00 0.00 55 1017.2
20260506132619 45 180 1.7 1.7 0.00 0.00 0.00 57 1017.1
20260506132116 44 150 1.7 1.7 0.00 0.00 0.00 57 1017.1
20260506131613 42 165 0.9 0.9 0.00 0.00 0.00 61 1017.2
20260506131109 41 159 1.7 1.7 0.00 0.00 0.00 65 1017.2
20260506130607 40 194 2.6 2.6 0.00 0.00 0.00 67 1017.2
20260506130104 39 197 2.6 2.6 0.00 0.00 0.00 68 1016.8
20260506125603 39 159 1.7 1.7 0.00 0.00 0.00 68 1017.0
20260506125100 38 120 0.0 0.0 0.00 0.00 0.00 69 1016.7
20260506124557 38 104 0.0 0.0 0.00 0.00 0.00 69 1016.8
20260506124055 38 103 0.0 0.0 0.00 0.00 0.00 69 1016.6
20260506123552 39 107 0.0 0.0 0.00 0.00 0.00 67 1016.8
20260506123051 41 109 0.0 0.0 0.00 0.00 0.00 65 1016.6
20260506122547 41 140 0.9 0.9 0.00 0.00 0.00 64 1016.4
20260506122045 41 158 0.9 0.9 0.00 0.00 0.00 63 1016.2
20260506121542 40 174 0.9 0.9 0.00 0.00 0.00 64 1016.4
20260506121038 40 180 1.7 1.7 0.00 0.00 0.00 66 1016.5
20260506120537 39 169 1.7 1.7 0.00 0.00 0.00 66 1016.4
20260506120034 39 171 0.9 0.9 0.00 0.00 0.00 66 1016.6
20260506115532 39 187 1.7 1.7 0.00 0.00 0.00 67 1016.6
20260506115030 39 143 0.9 0.9 0.00 0.00 0.00 65 1016.6
20260506114527 39 123 0.0 0.0 0.00 0.00 0.00 66 1016.6
20260506114025 39 118 0.0 0.0 0.00 0.00 0.00 66 1016.6
20260506113523 40 103 0.0 0.0 0.00 0.00 0.00 64 1016.4
20260506113020 40 103 0.0 0.0 0.00 0.00 0.00 64 1016.5
20260506112517 40 104 0.0 0.0 0.00 0.00 0.00 63 1016.2
20260506112014 40 127 0.0 0.0 0.00 0.00 0.00 64 1016.2
20260506111512 40 129 0.0 0.0 0.00 0.00 0.00 64 1016.2
20260506111009 39 132 0.0 0.0 0.00 0.00 0.00 65 1016.4
20260506110507 38 135 0.9 0.9 0.00 0.00 0.00 67 1016.6
20260506110003 38 105 0.0 0.0 0.00 0.00 0.00 67 1016.4
20260506105459 38 105 0.0 0.0 0.00 0.00 0.00 67 1016.2
20260506104957 39 98 0.0 0.9 0.00 0.00 0.00 66 1016.4
20260506104454 41 88 0.9 0.9 0.00 0.00 0.00 62 1016.1
20260506103953 40 115 0.9 0.9 0.00 0.00 0.00 62 1016.0
20260506103449 41 107 0.0 0.9 0.00 0.00 0.00 62 1016.1
20260506102946 41 98 0.0 0.9 0.00 0.00 0.00 62 1016.2
20260506102444 42 134 0.0 0.0 0.00 0.00 0.00 60 1016.0
20260506101941 41 229 0.9 1.7 0.00 0.00 0.00 62 1016.1
20260506101438 42 220 2.6 2.6 0.00 0.00 0.00 60 1016.2
20260506100935 41 195 2.6 2.6 0.00 0.00 0.00 62 1016.2
20260506100434 42 187 1.7 1.7 0.00 0.00 0.00 60 1016.1
20260506095931 42 222 2.6 2.6 0.00 0.00 0.00 59 1016.2
20260506095430 42 156 0.9 0.9 0.00 0.00 0.00 60 1016.2
20260506094925 43 192 1.7 1.7 0.00 0.00 0.00 57 1016.2
20260506094424 43 235 3.5 3.5 0.00 0.00 0.00 57 1016.4
20260506093921 44 200 2.6 2.6 0.00 0.00 0.00 57 1016.2
20260506093419 43 175 2.6 2.6 0.00 0.00 0.00 57 1016.0
20260506092916 43 218 1.7 1.7 0.00 0.00 0.00 57 1016.0
20260506092415 44 111 0.0 0.0 0.00 0.00 0.00 56 1016.0
20260506091910 45 226 4.3 5.2 0.00 0.00 0.00 55 1015.9
20260506091409 44 229 5.2 6.1 0.00 0.00 0.00 55 1015.8
20260506090905 45 228 2.6 2.6 0.00 0.00 0.00 55 1015.9